Starlink 33784

operational
NORAD ID: 63453 Int'l Des: 2025-069 Owner: SPXS Country: US Constellation: starlink
LEOCIRCULAR

Über Starlink 33784

Beschreibung wird geladen...

Live-Position

3D-Globus wird geladen...

Nächste Überflüge

Höhenverlauf

Altitude vs Time

uPlot chart will show altitude changes over time

Zweizeiliger Elementsatz

1 63453U 25069W 25258.66321432 .00026276 00000-0 89551-3 0 9996
2 63453 53.1589 235.7198 0000560 87.8702 272.2363 15.30223212 26602
Epoch: 15. Sept. 2025 • Age: 20 hours

Aktueller Status

Höhe 487.5 km
Geschwindigkeit 7.62 km/s
Subsatellitenpunkt -37.55°S, 84.73°W
Startdatum 4. Apr. 2025
Alter 0.4 years
Typ internet

Technische Details

Klassifizierung Payload
Masse 575.00 kg
Trockenmasse 530.00 kg
Gesamtmasse 575.00 kg
Länge 0.30 m
Durchmesser 4.10 m
Spannweite 29.00 m
Form Box + pan
Hersteller SPXS
Bus-Typ Starlink V2MO
Phasenstatus In Orbit
Besitzer/Staat SPXS/US

Große Konstellationen

Loading constellations...